Miscellaneous Local Product
Issued by NWS North Platte, NE

Home | Current Version | Previous Version | Graphics & Text | Print | Product List | Glossary On
Versions: 1 2 3 4 5 6 7 8 9 10 11 12 13 14 15 16 17 18 19 20 21 22 23 24 25 26 27 28 29 30 31 32 33 34 35 36 37 38 39 40 41 42 43 44 45 46 47 48 49 50
000
AXUS43 KLBF 180010
MISLBF


WESTERN AND NORTH CENTRAL NEBRASKA HOURLY WEATHER ROUNDUP
NATIONAL WEATHER SERVICE NORTH PLATTE NE
600 PM CST SUN DEC 17 2017

NOTE: "FAIR" INDICATES FEW OR NO CLOUDS BELOW 12,000 FEET WITH NO
SIGNIFICANT WEATHER AND/OR OBSTRUCTIONS TO VISIBILITY.

NOTE: STATIONS NOT REPORTING VARIABLES SUCH AS SKY/WEATHER OR
PRESSURE ARE PROVIDED BY RAWS AND APRS NETWORKS AND ARE NOT UNDER
NATIONAL WEATHER SERVICE QUALITY CONTROL.

...OBSERVATIONS IN AND NEAR THE EASTERN PANHANDLE OF NEBRASKA...

CITY           SKY/WX    TMP DP  RH WIND       PRES   REMARKS
PINE RIDGE     CLEAR     29  23  78 E5        29.83S WCI  24
GORDON         FAIR      32  25  74 CALM      29.83S
CHADRON        CLEAR     30  22  72 W7        29.84R WCI  23
ALLIANCE       CLEAR     28  21  75 W6        29.85R WCI  22
SIDNEY         CLEAR     30  24  78 SW10      29.89R WCI  21
$$

...OBSERVATIONS IN NORTHERN NEBRASKA AND FAR SOUTHERN SOUTH DAKOTA...

CITY           SKY/WX    TMP DP  RH WIND       PRES   REMARKS
WINNER         CLOUDY    41  30  65 S8        29.90F
VALENTINE      CLEAR     33  28  81 S8        29.89S WCI  26
THEDFORD       PTCLDY    32  30  92 S6        29.92R WCI  27
AINSWORTH      MOCLDY    34  29  83 S5        29.91S WCI  30
O`NEILL        CLOUDY    37  30  74 CALM      29.95S
ORD            CLOUDY    37  29  72 S3        29.95R
BROKEN BOW     CLOUDY    37  31  78 CALM      29.95R
VALENTINE NWR    N/A     35  28  76 S6          N/A  WCI  30
HALSEY           N/A     35  29  80 CALM        N/A
BUTTE            N/A     38  28  68 MISG        N/A
CHAMBERS         N/A     36  26  67 CALM        N/A
EWING            N/A     30  25  81 CALM        N/A
$$

...OBSERVATIONS IN SOUTHWEST NEBRASKA AND FAR NORTHEAST COLORADO...

CITY           SKY/WX    TMP DP  RH WIND       PRES   REMARKS
WRAY           FAIR      32  27  80 SW5       29.94S WCI  27
HOLYOKE        FAIR      34  25  69 SW9       29.92R WCI  26
IMPERIAL       CLEAR     33  27  78 S7        29.93S WCI  27
OGALLALA       CLEAR     34  27  76 S5        29.91S WCI  30
NORTH PLATTE   CLEAR     30  27  88 S5        29.94R WCI  25
MCCOOK         PTCLDY    38  30  73 W3        29.96S
LEXINGTON      CLOUDY    39  31  74 CALM      29.97R
STAPLETON        N/A     32  30  92 CALM        N/A
GOTHENBURG       N/A     38  30  72 CALM        N/A
CALLAWAY         N/A     36  33  88 CALM        N/A
$$

...OBSERVATIONS IN CENTRAL LINCOLN COUNTY AREA...

CITY           SKY/WX    TMP DP  RH WIND       PRES   REMARKS
N.P. AIRPORT   CLEAR     30  27  88 S5        29.94R WCI  25
N.P. DOWNTOWN    N/A     34  30  85 CALM        N/A
N.P. SOUTHEAST   N/A     33  28  83 CALM        N/A
N.P. HILLCREST   N/A     35  32  88 SE5         N/A  WCI  31
$$

...SOME OBSERVATIONS FROM AROUND THE REGION...

CITY           SKY/WX    TMP DP  RH WIND       PRES   REMARKS
DENVER         PTCLDY    33  21  61 SE6       29.88R WCI  28
GRAND JUNCTION CLEAR     39  11  31 NW5       30.03R
LARAMIE        CLEAR     26  14  60 SW20      29.88R WCI  12
CHEYENNE       CLEAR     34  18  52 W10       29.88R WCI  26
CASPER         CLOUDY    25  15  66 SW14      29.90R WCI  13
BISMARCK       CLEAR     29  20  69 S8        29.79F WCI  21
RAPID CITY     CLEAR     30  22  72 NW12      29.81S WCI  20
PIERRE         CLOUDY    36  30  79 S6        29.87S WCI  31
SIOUX FALLS    PTCLDY    30  27  88 SW3       29.95R
OMAHA          PTCLDY    31  24  75 CALM      30.00S
GRAND ISLAND   PTCLDY    36  29  75 W5        29.98R WCI  32
SCOTTSBLUFF    CLEAR     42  17  36 W17       29.87R
KANSAS CITY    CLOUDY    44  43  96 S5        30.00R
HILL CITY      PTCLDY    35  28  75 CALM      29.99R
WICHITA        MOCLDY    44  39  82 S7        30.02R
DODGE CITY     CLEAR     34  24  67 N3        30.00R
OKLAHOMA CITY  CLOUDY    44  43  96 CALM      30.05S
DALLAS         CLOUDY    48  45  89 SE8       30.03S
AMARILLO       CLEAR     42  27  55 N3        30.02S
$$




USA.gov is the U.S. government's official web portal to all federal, state and local government web resources and services.